Dewpoint
50 51 51 52 52 52 52 51 47 46 47 50 53 57 54 52 52 50 46 44 45 43 40 37 33 32 33 34 35 34 26 21 24 28 25 28 27 27 28 26 25 24 22 32 28
50 50 50 50 52 51 51 51 50 46 46 47 52 55 53 51 49 46 48 50 47 44 36 32 31 30 30 30 33 28 22 19 29 29 26 28 29 28 27 26 25 25 25 25 27
52 51 50 50 50 51 50 50 50 47 45 44 50 55 51 50 41 40 48 51 51 43 39 35 34 31 29 30 30 31 22 29 28 29 30 28 27 28 26 23 25 24 23 25 26
48 50 48 47 48 49 51 50 49 49 45 42 49 55 54 46 33 39 50 50 45 39 36 34 32 29 27 24 31 24 29 30 30 31 32 29 30 29 28 26 26 26 26 27 26
49 48 48 47 47 48 50 50 50 48 46 43 48 55 46 41 38 42 52 49 41 38 35 33 31 30 25 30 30 28 30 32 32 32 32 32 30 30 30 30 31 31 31 30 29
46 46 45 46 46 47 48 49 50 48 47 45 50 51 45 38 47 46 43 41 39 38 36 34 33 33 32 31 29 32 32 32 32 32 33 31 30 31 30 31 30 30 30 30 30
46 46 45 45 45 47 48 49 48 47 47 47 50 50 45 42 48 43 41 40 38 37 37 38 36 32 33 30 34 33 29 30 30 31 30 34 28 28 29 30 29 29 30 31 32
45 46 46 45 44 47 48 47 48 47 48 49 50 48 41 50 49 41 37 39 41 41 40 39 37 36 34 34 29 29 28 18 25 32 31 29 23 24 27 29 29 29 29 30 31
45 44 47 47 45 43 47 48 50 51 51 49 46 43 39 50 46 45 38 39 40 42 41 39 36 33 31 27 21 25 19 23 25 29 30 29 26 29 31 31 30 30 30 30 31
46 46 46 46 47 48 48 49 49 48 47 47 47 38 43 42 44 39 40 41 40 40 38 36 34 28 28 25 12 22 24 25 25 27 29 29 28 30 30 31 31 32 32 33 33
46 46 47 48 45 44 42 40 39 38 42 37 38 38 42 44 40 38 38 39 40 37 32 35 27 23 25 27 26 26 24 24 25 28 29 29 29 30 31 32 33 34 35 35 35
46 46 46 47 46 47 42 38 40 42 36 43 41 42 43 41 37 36 37 35 36 31 34 30 24 27 28 28 28 28 26 25 26 29 29 29 29 31 32 33 34 35 35 36 35
47 45 46 46 45 45 42 43 48 47 34 38 41 40 40 40 36 34 35 35 32 29 30 25 25 29 29 29 28 28 27 26 26 27 30 30 27 27 30 36 36 36 36 35 34
48 46 47 44 41 42 42 47 48 47 30 31 36 38 38 36 32 35 35 33 32 25 27 26 27 27 27 27 28 26 29 29 27 27 25 30 21 25 32 33 34 36 37 37 37
46 47 45 44 42 42 44 47 46 41 14 34 36 39 38 32 32 32 35 33 30 28 28 22 27 30 31 30 30 29 32 33 33 31 30 28 26 26 32 32 35 37 37 38 38
45 45 44 43 43 44 44 42 37 17 17 29 36 34 31 31 33 35 33 34 34 30 30 27 30 30 28 31 32 32 33 33 33 32 24 27 27 24 31 32 35 38 39 41 46
46 44 44 43 38 43 42 35 20 19 32 27 29 32 29 28 29 30 29 27 23 22 23 27 29 31 32 31 32 34 32 22 18 23 20 31 29 30 34 35 41 42 44 46 46
46 41 42 43 43 43 37 24 19 27 27 32 32 31 27 29 23 25 26 24 27 29 26 24 20 30 36 33 30 33 32 25 18 19 22 31 26 29 36 37 43 44 44 44 45
43 38 37 38 43 40 32 26 25 28 31 29 31 26 27 29 27 26 24 25 27 30 25 24 23 33 35 35 34 33 30 35 28 28 25 28 31 34 34 35 40 40 42 42 42
36 33 31 39 40 35 29 28 31 34 34 31 24 23 22 24 23 25 26 31 33 32 36 32 26 29 35 37 36 35 37 29 29 21 20 26 27 25 29 31 35 38 39 40 41
32 28 32 39 38 32 28 30 33 34 34 33 28 21 23 29 28 29 31 33 36 37 38 35 31 28 35 33 32 34 32 33 33 29 22 21 25 31 30 32 33 37 38 38 39
31 25 33 37 29 29 30 31 34 33 34 32 32 25 24 33 33 33 32 34 37 37 33 35 33 28 27 32 34 35 33 33 26 26 25 26 26 37 36 37 37 35 36 36 36
27 28 34 35 26 27 29 30 32 32 33 32 31 32 29 29 28 33 33 34 37 37 34 35 29 24 16 24 28 28 30 29 29 28 24 22 27 37 37 37 34 34 35 35 36
30 21 30 33 32 30 29 30 30 33 33 33 33 32 30 30 30 29 30 32 36 37 38 35 27 25 23 25 27 26 26 28 29 25 26 26 29 33 33 32 33 34 35 36 36
32 31 32 26 29 29 30 30 30 30 33 33 31 32 31 28 28 29 30 30 32 32 34 29 24 26 25 25 25 25 26 27 27 26 22 27 28 29 30 32 33 34 35 35 36
31 31 31 30 30 28 28 29 31 32 32 31 31 32 31 30 31 30 31 30 29 30 29 30 25 27 21 22 24 23 25 27 29 30 29 29 27 30 31 33 33 34 35 35 36
38 35 29 29 29 27 28 30 31 33 32 34 33 32 30 31 33 33 33 32 32 30 29 28 26 24 14 22 21 16 22 26 27 28 29 25 27 30 30 32 33 34 35 35 36
Wind_Speed
16 14 10 7 7 12 12 9 6 8 9 14 17 12 13 8 4 3 4 4 4 8 5 7 9 5 6 4 4 2 2 6 5 7 3 3 5 4 3 4 1 4 3 5 13
17 14 13 11 11 13 12 10 8 8 8 7 11 21 16 10 4 6 6 5 5 7 5 7 7 6 5 3 3 3 4 8 3 3 3 6 0 6 5 6 4 9 12 11 17
9 18 13 14 12 14 14 10 8 8 9 8 9 11 16 11 3 5 11 8 9 7 5 6 8 5 4 3 4 2 4 3 3 5 3 6 12 2 5 13 10 8 7 12 19
16 17 18 18 13 13 12 12 11 7 8 7 7 16 17 3 4 2 12 13 14 10 9 7 6 4 3 4 3 1 3 3 4 3 7 9 7 12 15 13 16 23 20 14 16
14 14 16 16 14 15 13 12 12 9 5 7 8 24 10 8 5 11 19 19 12 7 7 8 6 4 4 4 2 1 4 7 7 15 13 11 17 17 17 29 21 22 19 21 20
11 9 9 12 12 13 13 10 8 8 6 6 2 15 5 10 11 10 19 15 10 10 7 5 5 6 7 3 1 2 7 14 10 12 8 13 14 3 12 11 16 17 21 18 17
13 11 11 11 11 11 5 3 4 7 10 5 5 6 2 8 5 10 15 8 5 9 8 4 7 6 5 2 2 5 9 11 4 2 4 3 11 14 23 9 16 21 20 21 18
11 14 11 8 4 10 9 5 9 12 16 7 7 8 4 4 2 16 17 10 10 12 11 8 11 8 4 2 4 4 2 6 2 1 3 3 15 10 11 10 17 20 25 21 21
12 16 18 12 4 4 11 8 5 5 13 18 8 10 6 3 9 5 8 9 11 7 7 5 5 4 3 4 3 6 4 5 9 4 4 4 19 13 13 19 27 29 26 23 21
16 12 15 13 10 9 10 10 20 19 19 21 3 15 2 4 7 5 7 11 8 10 4 5 3 4 2 2 1 3 5 6 10 7 6 13 36 30 29 20 26 28 25 23 19
19 18 18 9 3 7 3 4 5 8 8 4 7 13 13 8 7 7 4 11 5 4 3 2 3 4 6 6 3 3 9 15 19 16 14 18 30 32 30 20 23 27 25 23 23
21 21 19 22 10 8 5 7 4 6 13 22 26 24 16 7 10 2 2 4 3 4 4 2 2 5 5 5 6 9 12 17 17 8 6 20 32 33 29 21 18 21 21 21 19
21 19 17 13 14 20 16 11 4 2 7 10 11 11 4 5 7 7 3 3 4 3 2 2 2 6 4 4 7 9 12 14 17 20 13 14 15 7 5 6 8 9 12 14 17
26 17 18 3 7 4 6 6 4 4 7 10 6 7 5 4 6 2 2 2 1 2 2 4 4 5 3 6 7 9 10 16 15 12 9 6 14 7 8 18 11 19 17 17 17
26 21 16 11 6 5 5 5 4 2 8 10 7 3 8 8 10 1 2 4 3 2 2 1 2 1 3 5 9 9 5 14 16 19 18 14 8 7 9 11 22 30 20 18 18
17 20 13 10 6 3 9 7 2 5 9 5 6 4 4 7 3 3 2 3 1 2 3 11 3 4 6 6 10 11 14 15 8 6 6 1 8 5 13 23 25 21 15 14 11
11 10 7 5 9 13 8 2 5 10 0 3 3 4 3 4 4 2 1 0 0 1 4 6 3 3 5 5 2 3 6 7 4 2 6 2 6 6 20 27 12 7 8 10 13
10 6 3 1 8 4 2 3 16 6 6 3 2 2 4 2 3 1 2 2 5 1 1 4 2 6 6 6 3 4 2 3 5 5 11 2 7 5 19 23 15 8 12 18 23
5 5 5 12 7 3 5 15 5 2 2 4 2 4 2 2 1 2 3 2 3 12 3 2 5 2 6 3 3 1 4 2 4 4 5 6 3 3 25 28 21 23 20 20 22
3 4 9 16 3 7 10 10 5 4 2 2 3 1 2 1 0 1 1 1 2 4 3 2 6 3 0 1 7 7 2 2 2 4 5 5 3 12 21 21 19 20 19 20 16
5 5 8 19 3 17 13 6 4 4 1 1 1 2 3 1 1 1 2 4 3 2 2 2 0 5 1 6 4 1 3 4 3 2 3 6 4 7 13 12 14 18 16 13 13
4 6 14 12 13 5 7 3 5 5 1 1 1 1 2 2 1 1 2 4 4 3 2 5 2 7 4 1 3 5 4 3 3 1 1 0 6 5 7 6 9 11 10 12 14
5 2 6 6 8 7 3 2 1 8 7 6 5 4 3 2 2 2 3 4 6 4 3 3 1 7 1 2 2 2 3 5 3 1 2 2 2 5 2 7 7 2 6 9 11
3 3 7 9 4 4 4 7 6 5 2 5 7 2 5 5 3 3 6 2 4 6 5 3 2 1 1 4 4 9 13 3 5 1 5 2 14 11 10 6 1 3 4 7 9
5 3 2 3 7 6 1 3 6 7 8 12 5 12 4 5 7 7 5 6 2 2 2 2 4 2 7 8 5 8 9 2 6 4 3 12 11 11 10 8 6 2 2 5 9
2 5 2 4 1 3 6 4 5 3 4 5 7 10 9 5 1 5 7 4 3 7 3 2 3 3 5 2 6 6 3 3 4 6 11 10 6 6 6 5 6 7 6 5 5
2 3 2 1 4 3 1 0 3 2 1 3 2 2 4 5 8 12 9 10 8 5 4 3 4 5 5 11 11 8 5 2 1 2 11 9 7 10 10 12 12 11 9 7 6
Wind_Direction
283 278 276 269 289 300 306 320 317 330 353 332 327 238 175 163 121 157 269 229 180 144 104 110 67 69 65 79 61 105 153 208 211 182 233 36 13 330 309 267 314 297 277 301 324
277 279 278 278 273 265 269 279 310 317 327 337 315 322 158 144 124 223 233 209 150 135 111 126 107 85 67 62 47 128 169 212 214 212 256 306 272 320 314 288 278 289 273 289 327
285 303 300 297 282 274 265 257 265 288 304 315 310 319 146 134 112 242 206 193 196 118 103 97 104 75 81 70 29 113 211 209 264 265 353 301 304 252 269 281 238 250 274 295 307
331 309 307 314 305 298 278 255 249 253 284 306 320 162 129 74 183 245 157 158 113 113 99 98 65 73 92 113 32 273 257 259 286 331 326 298 301 288 250 259 265 261 265 275 279
285 276 294 308 312 301 285 262 248 247 270 303 340 151 125 98 304 319 152 113 94 81 102 104 83 98 110 94 32 277 313 315 291 294 285 264 264 264 274 269 266 273 266 261 255
343 345 330 316 322 313 290 262 249 259 287 298 23 113 107 129 289 106 102 87 92 98 93 73 125 110 97 84 40 278 283 286 278 273 267 270 276 258 256 256 273 272 273 261 248
19 10 344 313 312 337 335 283 275 279 285 282 177 108 67 128 312 87 85 95 85 109 94 67 107 86 119 95 333 323 318 322 320 311 251 223 269 236 256 279 276 283 276 271 252
37 3 337 318 310 27 36 343 287 262 262 250 119 116 106 354 360 72 81 76 83 87 96 96 101 98 62 140 23 5 13 345 356 323 294 125 273 271 284 288 279 285 278 268 267
25 21 28 28 77 13 31 20 12 261 128 105 89 106 116 22 89 135 131 116 96 82 72 98 75 89 88 46 22 23 325 326 320 339 270 233 290 274 291 281 281 279 266 266 266
35 16 23 49 79 78 65 72 77 71 71 70 63 87 198 129 136 120 107 91 92 99 64 44 69 103 108 70 272 351 341 321 288 301 303 285 279 281 276 273 272 270 264 263 263
17 20 28 22 82 69 71 60 71 55 66 169 164 102 119 103 79 81 88 84 75 55 95 30 90 169 204 206 148 295 286 285 283 275 283 273 273 279 281 278 271 265 263 259 264
19 19 24 57 64 75 53 77 45 100 72 58 72 84 90 90 110 81 101 93 120 114 121 94 290 243 210 224 244 265 274 279 286 272 289 280 284 286 290 272 266 281 269 264 267
12 17 18 32 52 58 62 66 95 17 81 38 59 76 82 84 98 152 117 120 126 127 161 197 184 101 186 236 243 254 256 275 278 298 271 294 285 317 324 304 306 327 307 288 274
23 25 8 66 48 358 46 325 334 321 85 20 47 30 14 104 65 81 82 106 107 186 188 254 252 248 231 251 218 288 250 255 281 314 294 29 294 302 322 319 317 316 311 296 286
32 28 28 49 117 45 311 312 312 350 70 357 21 266 320 85 131 36 11 24 97 85 92 274 274 299 294 246 180 251 297 281 278 271 284 276 250 273 347 325 317 310 303 296 283
35 31 28 10 41 30 323 323 48 52 54 13 10 12 59 52 65 88 71 54 85 345 234 253 282 274 232 253 233 271 302 299 264 253 254 309 214 289 351 316 313 304 308 310 336
6 34 34 39 334 324 329 28 83 62 203 19 44 17 54 67 73 70 146 272 224 35 358 321 244 249 210 282 288 209 289 312 344 267 258 233 278 296 331 324 316 345 12 22 19
349 23 11 154 319 320 25 50 66 29 65 96 123 78 71 91 75 157 156 308 228 171 279 347 312 194 178 218 274 298 236 282 299 303 301 347 323 321 338 339 23 31 24 34 18
19 346 342 346 357 72 53 53 79 101 134 116 36 63 36 360 165 198 230 241 225 198 212 298 267 108 206 194 165 117 224 204 271 254 271 314 336 252 356 354 14 23 37 33 14
54 348 354 342 44 62 67 82 69 32 46 58 31 42 78 83 143 236 253 197 231 184 200 306 297 233 199 176 241 232 304 259 229 309 307 334 8 336 348 352 3 39 22 25 1
54 38 342 348 30 49 60 53 29 346 281 201 30 99 89 40 42 354 287 300 174 216 184 349 257 313 332 206 182 182 250 216 279 266 298 330 352 349 339 0 16 37 22 17 26
69 49 334 356 55 39 48 13 333 338 331 312 274 293 115 149 37 259 300 243 190 164 250 218 258 269 234 193 194 174 225 230 213 186 304 244 11 335 313 353 14 2 11 19 24
77 341 339 31 75 38 359 39 233 18 7 7 359 21 10 157 352 240 248 283 181 181 241 184 263 313 49 73 28 302 247 258 256 242 207 110 109 318 299 301 320 7 37 38 37
78 76 13 57 24 81 38 25 23 7 60 2 0 34 38 33 32 3 2 352 198 226 255 185 245 222 79 272 312 306 328 285 197 240 140 161 158 233 252 259 189 81 56 58 58
49 95 150 36 37 41 73 26 33 24 357 20 41 29 351 356 354 11 353 333 185 351 168 201 287 281 266 262 287 276 325 340 176 161 166 177 182 219 219 198 185 183 73 65 64
96 140 109 118 355 64 7 22 42 355 23 13 31 346 31 75 59 312 347 13 9 329 12 5 289 323 289 269 320 298 332 54 91 110 112 162 215 203 205 185 199 197 170 147 100
103 60 12 212 125 120 135 2 348 318 170 133 337 348 13 333 275 264 254 265 259 314 316 352 338 356 289 340 331 286 226 195 252 187 159 174 222 169 195 209 205 205 196 177 157